CAPE
388 436 250 52 10 12 5 17 43 32 43 29 0 0 0 0 0 0 0 8 9 32 115 245 730 975 1189 1265 1353 1456 1488 1517 1564 1454 1440 1590 1694 1560 1692 1637 1575 1579 1592 1621 1592 1470 1316 1229 1095
493 442 45 12 46 13 15 65 59 75 3 0 0 0 0 0 3 4 3 0 15 31 127 333 716 960 1280 1313 1317 1520 1589 1753 1707 1773 1889 1798 1722 1661 1579 1482 1460 1467 1432 1390 1364 1408 1349 1363 1369
477 207 15 28 113 49 71 81 95 47 2 1 0 0 0 6 3 5 0 0 0 30 203 469 912 970 1178 1324 1463 1580 1697 1647 1503 1394 1699 1732 1655 1586 1490 1401 1393 1417 1539 1564 1392 1240 1175 1176 1151
807 213 158 69 47 74 125 93 96 8 5 9 0 2 6 1 0 0 0 0 1 114 359 667 979 940 1042 1245 1405 1476 1517 1588 1573 1466 1510 1673 1608 1528 1467 1460 1470 1579 1735 1782 1607 1469 1404 1287 1173
288 29 2 52 97 97 158 195 113 110 42 0 2 0 14 54 21 0 0 17 56 188 558 720 866 939 1037 1203 1270 1333 1383 1543 1649 1529 1417 1629 1529 1468 1400 1426 1583 1743 1863 1722 1389 1157 1186 1194 1136
52 18 0 12 51 114 224 212 198 136 41 17 0 0 29 66 19 13 36 79 171 291 548 770 918 1104 1118 1137 1245 1324 1380 1562 1661 1623 1459 1560 1558 1287 1242 1312 1449 1658 1653 1554 1231 953 906 957 1054
0 0 0 37 60 139 202 233 214 78 13 23 14 0 35 76 69 58 122 161 269 524 457 906 1136 1071 1123 1213 1271 1195 1387 1481 1537 1439 1364 1434 1364 1148 1100 1253 1339 1379 1421 1377 1317 1249 931 886 1112
12 0 0 10 86 193 309 310 259 72 107 67 18 0 0 129 110 137 124 159 256 513 639 802 1225 1200 1267 1373 1452 1277 1312 1438 1345 1135 1342 1380 1251 1337 1343 1315 1172 1380 1200 1179 1151 1046 817 830 1034
1 0 0 34 54 271 430 335 218 228 99 10 155 0 66 226 204 145 107 98 95 359 695 908 1092 1270 1229 1393 1551 1431 1225 1338 1196 1149 1331 1223 889 1042 1289 1212 1442 1186 1162 1536 1223 1075 1048 742 1196
0 0 0 0 4 164 438 318 217 132 26 115 144 6 149 197 181 161 152 124 8 100 554 765 1058 1083 1133 1433 1416 1220 1049 1024 849 721 657 905 602 652 969 997 1326 1109 1224 939 1022 1322 1111 1253 618
1 0 0 0 0 233 380 277 286 71 11 98 0 20 219 248 254 244 253 155 19 96 401 681 960 1129 895 957 1014 919 711 554 363 200 259 313 574 724 916 916 752 792 1009 711 954 1078 746 1042 967
33 0 0 14 0 179 359 338 330 108 57 125 0 97 285 307 320 386 356 360 237 214 302 517 755 865 733 636 520 421 250 217 86 63 106 493 925 988 955 768 400 632 949 872 255 800 797 920 1042
24 0 3 41 7 69 356 377 374 184 327 246 195 265 228 367 383 441 442 453 460 372 364 402 602 632 361 95 123 167 39 71 8 24 166 860 1055 972 898 737 648 849 870 884 572 604 774 723 1075
0 0 0 14 3 11 396 420 450 282 427 290 166 253 333 380 472 451 489 484 532 345 277 456 413 403 155 0 0 0 8 29 58 146 398 774 1049 898 814 671 629 976 901 851 705 670 698 824 749
0 0 0 4 0 4 3 124 328 331 443 284 161 228 337 412 443 493 548 622 556 410 255 360 333 238 9 0 14 55 38 518 611 669 709 840 907 874 999 938 815 971 934 914 843 860 488 0 0
0 0 0 0 0 0 0 0 177 380 439 387 249 192 303 358 384 422 512 513 482 393 428 427 452 343 157 150 207 319 290 711 1030 1109 988 891 1029 821 827 701 666 878 772 794 657 606 302 0 0
0 0 0 0 0 0 0 0 67 339 424 469 433 265 279 264 330 341 449 327 333 301 310 354 441 297 432 395 427 493 639 689 564 611 862 953 1048 882 822 760 657 931 907 730 558 561 19 0 0
0 0 0 0 0 0 0 0 209 342 379 498 463 395 394 286 281 298 403 424 232 217 292 238 356 252 312 499 538 502 717 500 655 771 668 831 997 929 911 871 725 1018 1132 844 663 296 16 0 0
0 0 0 0 0 0 0 0 107 318 294 452 468 402 377 243 221 292 327 414 380 235 231 300 369 372 310 365 548 868 739 548 628 846 875 806 997 1086 1239 668 962 987 762 859 469 117 0 0 0
0 0 0 0 0 0 0 0 53 251 228 206 245 325 282 171 103 224 223 326 320 194 211 286 441 446 383 339 543 772 668 556 443 697 817 798 931 1275 1279 869 763 897 794 663 277 2 0 0 0
0 0 0 0 0 0 0 0 34 191 217 209 152 89 81 143 64 31 143 325 401 256 235 354 418 422 409 410 532 612 462 379 367 580 971 924 971 969 992 918 740 727 653 626 119 0 0 0 0
0 0 0 0 0 0 0 0 0 24 68 132 195 171 123 71 47 20 54 169 291 281 253 309 345 389 349 387 479 409 433 409 323 561 699 782 1139 1101 1017 1004 734 647 500 435 75 0 0 0 0
0 0 0 0 0 0 0 0 0 0 0 0 25 107 69 91 60 38 13 66 148 225 202 233 201 357 458 504 506 523 571 514 384 365 595 809 875 937 1006 943 860 620 442 303 100 2 0 0 0
0 0 0 0 0 0 0 0 0 0 0 0 0 0 18 37 35 40 27 36 107 175 104 249 228 372 509 487 568 648 654 567 523 409 472 590 804 948 1091 1091 948 639 504 316 95 0 0 0 0
0 0 0 0 0 0 0 0 0 0 0 0 0 0 0 11 4 19 9 8 56 163 167 238 269 403 560 580 643 676 691 580 557 345 420 954 1110 1131 1173 1142 947 681 490 206 42 0 0 0 0
0 0 0 0 0 0 0 0 0 0 0 0 0 0 0 0 0 0 0 0 14 75 148 269 290 354 670 745 726 723 717 656 599 497 300 637 939 760 989 1197 969 739 396 97 7 0 0 0 0
0 0 0 0 0 0 0 0 0 0 0 0 0 0 0 0 0 0 0 0 0 10 70 214 366 370 590 755 808 746 722 694 646 543 341 376 791 833 798 1000 771 794 463 85 0 0 0 0 0
0 0 0 0 0 0 0 0 0 0 0 0 0 0 0 0 0 0 0 0 0 0 10 125 354 413 495 691 807 807 744 739 758 604 450 455 659 621 688 881 672 695 420 99 5 2 0 0 0
0 0 0 0 0 0 0 0 0 0 0 0 0 0 0 0 0 0 0 0 0 12 8 134 382 474 544 681 778 850 889 980 1012 941 598 556 835 576 644 777 617 594 463 163 59 34 18 0 0
0 0 0 0 0 0 0 0 0 0 0 0 0 0 0 0 2 4 0 0 0 0 16 195 391 580 584 756 808 776 770 838 991 1108 963 895 967 662 591 537 531 492 463 302 156 109 91 10 0
CIN
-70 -34 -30 -39 -39 -48 -38 -35 -55 -46 -55 -73 -0 -0 -0 -0 -0 -0 -1 -17 -33 -11 -4 -7 -0 -0 -0 -0 -0 -0 -0 -0 -1 -8 -14 -13 -7 -9 -0 -0 -0 -0 -0 -1 -0 -0 -4 -4 -7
-50 -32 -120 -137 -28 -42 -29 -52 -51 -60 -104 -0 -0 -0 -0 -0 -0 -0 -0 -0 -31 -23 -12 -8 -2 -0 -0 -0 -0 -0 -0 -0 -1 -3 -0 -3 -4 -3 -2 -3 -0 -0 -0 -0 -2 -1 -2 -0 -0
-51 -88 -119 -104 -32 -50 -40 -70 -75 -123 -74 -61 -0 -0 -0 -0 -0 -0 -0 -0 -0 -27 -14 -3 -0 -0 -0 -0 -0 -0 -0 -1 -11 -18 -4 -3 -3 -1 -4 -11 -11 -4 -0 -0 -3 -7 -8 -6 -12
-20 -47 -48 -72 -34 -48 -67 -89 -93 -103 -64 -196 -0 -63 -54 -0 -0 -0 -0 -0 -15 -25 -2 -0 -0 -0 -0 -3 -3 -3 -6 -5 -12 -14 -13 -4 -6 -9 -7 -9 -10 -0 -0 -0 -0 -2 -3 -3 -8
-77 -110 -62 -20 -26 -67 -67 -78 -104 -112 -152 -0 -42 -0 -111 -91 -109 -0 -0 -86 -58 -11 -3 -1 -0 -2 -5 -7 -9 -12 -10 -12 -10 -10 -21 -13 -14 -12 -11 -6 -0 -0 -0 -0 -13 -27 -22 -17 -29
-163 -165 -11 -82 -60 -72 -58 -79 -90 -103 -164 -220 -0 -0 -159 -128 -172 -132 -102 -53 -43 -27 -4 -2 -0 -0 -2 -10 -8 -7 -15 -13 -7 -11 -26 -17 -11 -21 -19 -11 -5 -2 -5 -16 -25 -40 -42 -44 -37
-0 -0 -0 -156 -104 -70 -78 -105 -77 -148 -172 -201 -261 -0 -178 -155 -130 -94 -85 -51 -39 -10 -13 -2 -0 -0 -1 -5 -5 -20 -22 -21 -21 -34 -40 -27 -29 -34 -30 -19 -17 -17 -20 -24 -24 -23 -39 -45 -35
-208 -0 -0 -196 -71 -48 -89 -102 -84 -115 -132 -211 -260 -0 -0 -159 -140 -57 -58 -60 -53 -11 -8 -7 -2 -0 -1 -3 -5 -24 -29 -26 -37 -57 -44 -32 -39 -34 -31 -23 -24 -18 -31 -37 -40 -34 -29 -34 -47
-32 -0 -0 -168 -99 -43 -72 -84 -110 -127 -189 -58 -194 -0 -248 -140 -98 -71 -90 -109 -102 -16 -8 -4 -4 -3 -9 -6 -4 -19 -39 -38 -48 -54 -39 -41 -62 -57 -44 -41 -22 -24 -28 -26 -38 -35 -26 -46 -36
-0 -0 -0 -0 -41 -61 -87 -93 -146 -144 -151 -131 -180 -78 -191 -158 -127 -115 -125 -175 -92 -106 -16 -20 -12 -18 -19 -11 -21 -47 -65 -67 -80 -90 -84 -65 -80 -79 -56 -48 -32 -31 -29 -39 -42 -35 -32 -31 -71
-233 -0 -0 -0 -0 -89 -82 -85 -116 -158 -135 -124 -0 -81 -177 -150 -110 -102 -101 -144 -180 -149 -64 -45 -30 -28 -59 -63 -65 -81 -101 -110 -127 -142 -115 -111 -86 -77 -65 -64 -67 -65 -42 -62 -48 -42 -52 -33 -46
-186 -0 -9 -60 -12 -63 -76 -90 -122 -127 -81 -173 -1 -277 -221 -158 -139 -97 -98 -105 -130 -145 -123 -97 -65 -67 -94 -106 -118 -130 -147 -145 -174 -174 -168 -86 -72 -60 -44 -55 -71 -72 -60 -45 -88 -54 -49 -34 -34
-224 -0 -115 -54 -59 -54 -70 -84 -83 -118 -130 -191 -214 -218 -229 -174 -135 -99 -109 -100 -109 -135 -149 -146 -112 -109 -149 -210 -197 -171 -207 -174 -46 -123 -127 -78 -59 -51 -52 -59 -63 -57 -60 -56 -52 -51 -41 -39 -33
-0 -0 -0 -62 -42 -20 -45 -71 -112 -103 -171 -204 -251 -228 -205 -172 -140 -110 -92 -100 -116 -161 -189 -160 -163 -161 -201 -0 -0 -0 -64 -120 -167 -140 -90 -77 -66 -59 -47 -58 -59 -47 -57 -45 -46 -43 -30 -32 -45
-0 -0 -0 -63 -3 -42 -20 -55 -124 -97 -171 -211 -242 -223 -205 -174 -156 -152 -152 -135 -146 -174 -194 -192 -190 -210 -65 -0 -65 -180 -147 -90 -87 -80 -76 -67 -63 -58 -45 -41 -47 -36 -46 -48 -52 -44 -57 -0 -0
-0 -0 -0 -0 -0 -0 -0 -0 -88 -113 -164 -188 -232 -205 -199 -200 -193 -182 -169 -167 -164 -166 -184 -168 -160 -188 -219 -194 -152 -125 -123 -70 -74 -68 -64 -61 -51 -60 -57 -46 -43 -44 -45 -56 -43 -48 -56 -20 -0
-0 -0 -0 -0 -0 -0 -0 -0 -107 -137 -151 -188 -201 -203 -188 -200 -199 -200 -175 -192 -184 -196 -193 -175 -165 -179 -159 -150 -120 -97 -67 -54 -62 -73 -60 -61 -51 -51 -53 -36 -46 -48 -44 -54 -45 -46 -60 -0 -0
-0 -0 -0 -0 -0 -0 -0 -0 -115 -166 -178 -169 -216 -191 -177 -186 -220 -232 -202 -181 -191 -196 -191 -178 -162 -186 -166 -134 -107 -94 -59 -78 -49 -35 -50 -55 -56 -57 -57 -44 -41 -42 -46 -44 -48 -50 -104 -0 -0
-0 -0 -0 -0 -0 -0 -0 -0 -137 -187 -210 -200 -220 -198 -188 -207 -209 -222 -228 -189 -194 -210 -192 -203 -172 -181 -182 -191 -120 -54 -51 -47 -49 -49 -45 -55 -59 -50 -48 -45 -39 -44 -41 -46 -67 -106 -0 -0 -0
-0 -0 -0 -0 -0 -0 -0 -0 -141 -178 -199 -238 -251 -238 -229 -237 -247 -234 -237 -211 -227 -232 -232 -214 -202 -185 -195 -193 -148 -91 -61 -63 -69 -46 -42 -54 -47 -37 -44 -40 -35 -40 -41 -52 -83 -15 -0 -0 -0
-0 -0 -0 -0 -0 -0 -0 -0 -190 -147 -161 -184 -214 -247 -232 -233 -260 -304 -256 -248 -243 -284 -296 -263 -246 -225 -213 -205 -163 -134 -136 -144 -126 -84 -39 -44 -44 -46 -44 -42 -43 -50 -65 -47 -138 -0 -0 -0 -0
-0 -0 -0 -0 -0 -0 -0 -0 -0 -204 -174 -198 -202 -229 -244 -250 -276 -305 -313 -266 -292 -324 -335 -312 -291 -242 -237 -217 -178 -174 -137 -114 -144 -96 -50 -53 -46 -45 -44 -44 -60 -84 -104 -105 -169 -0 -0 -0 -0
-0 -0 -0 -0 -0 -0 -0 -0 -0 -0 -0 -0 -261 -242 -270 -294 -305 -324 -382 -326 -332 -331 -370 -358 -330 -249 -237 -237 -185 -175 -135 -124 -132 -145 -94 -68 -63 -51 -46 -51 -71 -105 -129 -137 -176 -32 -0 -0 -0
-0 -0 -0 -0 -0 -0 -0 -0 -0 -0 -0 -0 -0 -0 -274 -303 -345 -374 -430 -434 -401 -337 -380 -365 -346 -292 -265 -253 -221 -191 -154 -140 -118 -165 -142 -132 -92 -71 -63 -69 -94 -117 -140 -157 -199 -0 -0 -0 -0
-0 -0 -0 -0 -0 -0 -0 -0 -0 -0 -0 -0 -0 -0 -0 -382 -143 -397 -434 -473 -492 -439 -402 -393 -392 -351 -315 -287 -245 -209 -185 -166 -154 -183 -161 -92 -87 -107 -97 -101 -118 -147 -169 -187 -245 -0 -0 -0 -0
-0 -0 -0 -0 -0 -0 -0 -0 -0 -0 -0 -0 -0 -0 -0 -0 -0 -0 -0 -0 -506 -508 -446 -404 -435 -376 -340 -299 -265 -229 -194 -203 -193 -191 -210 -148 -128 -139 -120 -117 -136 -168 -201 -234 -108 -0 -0 -0 -0
-0 -0 -0 -0 -0 -0 -0 -0 -0 -0 -0 -0 -0 -0 -0 -0 -0 -0 -0 -0 -0 -524 -496 -441 -443 -417 -372 -330 -298 -278 -246 -241 -237 -242 -255 -223 -163 -160 -153 -149 -156 -185 -217 -267 -0 -0 -0 -0 -0
-0 -0 -0 -0 -0 -0 -0 -0 -0 -0 -0 -0 -0 -0 -0 -0 -0 -0 -0 -0 -0 -0 -531 -502 -489 -457 -436 -377 -349 -333 -302 -262 -242 -242 -270 -263 -230 -221 -203 -184 -184 -193 -236 -297 -352 -146 -0 -0 -0
-0 -0 -0 -0 -0 -0 -0 -0 -0 -0 -0 -0 -0 -0 -0 -0 -0 -0 -0 -0 -0 -456 -525 -496 -507 -495 -458 -453 -420 -365 -332 -279 -225 -228 -288 -293 -234 -283 -251 -214 -214 -218 -227 -285 -332 -343 -342 -0 -0
-0 -0 -0 -0 -0 -0 -0 -0 -0 -0 -0 -0 -0 -0 -0 -0 -201 -278 -0 -0 -0 -12 -517 -518 -526 -529 -507 -461 -449 -430 -391 -352 -262 -237 -266 -283 -255 -309 -292 -285 -262 -268 -245 -267 -291 -288 -310 -205 -0
Wind_Speed
23 21 12 13 14 15 15 14 13 9 12 14 20 20 20 8 19 18 34 33 39 37 38 35 32 31 30 27 26 25 26 24 26 29 30 29 29 29 27 21 7 7 9 8 5 12 25 25 24
22 21 14 15 15 12 14 12 9 11 16 16 12 5 10 14 20 25 31 38 37 39 38 30 30 30 30 28 27 25 24 28 30 30 29 29 28 27 26 26 23 19 12 13 19 22 24 24 23
24 14 12 12 10 7 11 14 9 15 20 16 15 10 17 17 19 30 36 39 38 39 37 31 31 30 31 27 23 23 27 30 30 29 29 28 27 26 25 24 24 20 19 21 21 23 23 22 22
11 15 13 13 15 14 13 13 15 19 16 15 18 15 11 16 24 32 38 38 36 37 36 33 31 31 30 25 25 28 29 30 29 28 28 27 26 25 24 23 22 22 21 20 22 22 22 22 21
8 13 13 14 14 13 10 13 20 17 12 17 14 14 20 7 9 29 34 35 35 36 35 33 32 32 30 27 28 29 29 29 28 27 26 25 24 24 24 23 20 18 15 16 21 23 22 22 22
14 13 14 19 16 15 9 19 18 13 15 18 18 16 5 17 22 31 32 32 32 36 34 34 33 34 32 30 29 29 29 28 27 26 25 24 23 23 22 21 20 19 21 22 21 21 22 21 20
12 15 15 10 18 13 7 18 16 17 15 13 21 14 20 24 23 29 29 30 30 35 35 35 35 33 32 31 30 30 29 28 27 25 24 23 22 20 19 18 17 17 18 18 18 18 19 18 17
14 13 12 21 20 17 14 19 18 16 11 19 21 14 19 30 26 26 25 27 28 35 35 35 34 34 33 32 31 30 29 27 26 25 24 22 21 19 18 17 17 16 17 17 17 18 18 17 17
14 15 20 20 24 15 19 13 18 10 18 22 19 16 23 27 23 22 22 25 28 34 35 35 34 34 33 32 31 30 28 27 26 24 22 21 19 18 17 17 16 16 17 18 17 17 17 17 17
22 19 21 20 11 16 20 17 16 15 19 5 12 16 23 24 21 23 26 28 32 36 35 35 35 34 33 32 31 30 28 26 25 23 22 21 19 18 17 16 15 16 17 16 16 15 14 17 17
20 20 18 18 20 23 22 19 19 19 17 17 19 22 25 26 24 25 27 30 35 37 36 36 35 34 33 32 30 29 28 26 24 23 22 20 19 18 17 17 16 16 16 15 16 16 15 15 16
19 21 15 14 16 22 23 23 20 21 17 21 21 24 25 28 27 28 32 35 37 37 36 36 35 33 32 31 30 29 27 26 24 23 22 20 19 18 17 18 17 16 16 15 15 15 13 14 14
24 22 21 21 20 21 24 22 20 22 17 22 22 22 24 29 30 30 32 35 38 37 37 36 34 33 32 31 30 28 27 26 25 23 22 21 19 18 17 18 17 15 15 15 14 14 13 13 13
9 21 22 24 16 4 21 23 21 25 20 23 23 22 26 29 32 33 32 38 38 37 37 36 34 33 32 31 29 29 27 26 25 23 22 22 20 17 18 17 16 15 15 14 13 13 14 12 12
26 28 24 28 22 18 26 22 22 23 22 23 22 24 28 31 31 34 36 39 39 38 37 35 33 33 32 31 30 29 27 26 25 24 23 21 20 18 17 16 14 14 14 12 12 12 13 14 14
23 17 28 27 28 27 22 24 19 20 24 24 22 25 29 30 32 34 37 38 39 37 36 34 33 33 32 32 30 29 27 26 25 25 23 23 21 19 17 15 13 12 12 11 11 11 11 11 12
20 4 17 25 21 27 14 23 15 21 25 24 24 26 29 31 33 35 38 38 37 36 33 33 33 33 32 31 30 28 26 25 23 23 23 22 21 18 16 13 12 12 11 11 11 12 12 13 13
9 5 14 24 20 22 17 12 17 24 25 27 28 28 29 32 34 36 37 36 35 33 30 32 32 32 31 29 29 29 27 23 23 22 21 19 20 18 14 12 11 10 10 11 12 12 14 14 13
13 9 6 21 25 22 23 25 21 24 27 29 30 30 29 31 35 34 37 35 31 31 31 31 30 30 30 28 27 27 28 27 24 20 19 17 17 16 14 10 9 10 11 12 13 13 13 13 15
33 22 33 28 30 18 31 31 20 23 29 30 30 32 32 30 33 35 35 32 31 30 31 32 31 29 28 28 26 26 25 27 24 19 17 14 15 14 12 11 11 11 13 13 12 14 15 14 15
28 16 18 20 18 24 20 33 18 30 34 31 33 34 33 31 29 31 35 36 31 31 31 31 32 29 27 26 23 17 11 10 18 15 15 13 15 13 13 13 14 14 15 13 13 14 15 16 15
22 22 22 24 24 29 11 5 24 23 29 34 34 36 35 34 33 29 29 32 35 34 32 31 30 29 28 25 24 24 22 19 17 16 15 14 13 13 15 15 16 15 14 14 14 14 15 16 15
40 28 25 25 31 34 35 17 24 23 35 38 34 35 36 36 33 33 30 32 35 35 33 32 29 28 26 25 24 23 20 21 15 14 15 14 12 14 17 18 18 15 13 14 13 14 15 16 15
33 26 26 29 32 45 35 14 24 23 38 37 34 35 35 36 37 35 34 30 30 31 30 29 27 27 25 25 25 23 20 18 18 15 17 14 18 19 21 22 18 15 13 13 13 14 15 15 15
13 14 26 33 36 33 19 16 27 31 33 37 35 36 33 33 37 34 33 27 25 25 26 26 26 26 23 23 24 23 20 18 19 17 16 16 18 25 27 21 18 13 13 14 15 14 13 14 14
17 19 14 25 32 37 27 48 38 42 42 38 41 36 30 30 30 32 30 29 26 26 25 25 23 24 22 20 19 21 21 17 18 17 17 21 23 26 22 21 18 16 16 18 17 14 12 12 13
19 25 20 25 29 31 31 50 48 42 44 44 44 41 26 25 25 26 28 29 28 25 27 26 26 26 25 24 19 20 22 18 17 15 17 21 25 26 20 19 19 18 19 18 15 14 12 11 12
28 19 19 21 26 30 33 42 38 28 50 46 20 31 33 19 21 29 31 28 26 28 28 31 27 26 27 28 24 22 20 18 14 14 17 18 24 24 19 19 19 20 20 18 15 13 11 10 9
29 28 27 21 21 24 33 46 40 34 30 39 34 16 36 29 29 32 33 27 29 32 26 26 25 24 29 27 25 23 21 19 16 17 17 20 16 20 18 18 17 17 19 17 15 14 11 9 7
32 35 33 37 26 40 39 42 25 25 48 36 29 29 27 17 22 43 32 30 27 24 22 26 25 24 29 30 27 26 23 21 24 23 20 18 21 18 19 16 15 15 15 16 15 14 11 10 8
Wind_Direction
122 102 17 309 304 263 252 260 273 294 335 198 118 97 83 345 91 89 125 146 141 149 136 123 115 109 105 98 91 88 87 83 86 94 101 99 103 99 88 56 204 204 191 193 235 5 105 82 87
110 125 164 153 222 249 243 256 285 279 42 41 15 11 341 52 95 103 121 136 141 146 147 115 113 110 108 102 96 90 87 96 100 107 105 108 108 101 100 89 120 140 171 145 123 109 85 77 80
135 190 219 218 263 315 246 233 310 49 91 171 88 330 72 83 85 116 135 130 129 139 151 118 116 113 116 105 94 91 99 107 112 111 115 113 108 111 100 104 106 134 135 125 123 97 82 73 79
355 271 260 233 228 233 249 68 54 80 65 16 67 26 24 86 100 162 125 130 125 135 137 126 119 121 118 106 103 108 112 118 119 119 119 117 116 118 113 114 116 115 119 118 105 90 84 74 78
331 191 317 273 250 240 259 57 81 53 337 56 39 51 76 207 82 112 122 125 127 133 139 127 126 129 125 116 119 120 123 126 128 125 124 125 124 120 115 118 132 140 157 153 120 106 103 98 89
304 20 340 256 242 246 25 105 93 9 53 70 64 65 193 89 106 122 124 126 127 136 133 136 136 140 135 132 129 128 132 135 136 133 130 130 133 124 121 124 129 131 108 98 111 112 101 107 105
354 1 331 286 220 241 322 93 82 59 60 56 95 58 92 112 113 122 123 124 126 144 143 151 149 144 142 140 138 141 144 145 144 144 142 140 145 146 144 146 149 148 136 132 137 133 125 127 130
7 32 35 211 206 230 82 95 87 67 11 85 95 73 109 133 123 122 121 124 127 147 156 155 154 153 153 151 148 152 153 154 153 152 151 150 148 151 153 152 153 156 150 148 144 136 128 127 122
43 61 112 191 164 90 106 72 81 318 85 137 122 99 119 127 124 121 122 126 134 153 162 163 161 160 159 158 157 159 157 158 157 160 160 159 161 162 160 159 159 153 146 142 142 139 127 122 120
154 171 176 186 176 114 120 109 90 42 94 327 47 90 119 124 127 130 135 139 146 159 164 165 166 163 162 163 162 163 162 163 166 168 167 165 168 171 170 169 168 158 153 150 144 148 144 121 117
173 186 214 215 166 136 131 121 120 91 100 106 99 115 129 134 135 138 142 146 156 168 170 168 165 162 162 164 163 167 168 168 168 172 173 169 168 178 177 176 173 162 156 153 138 132 135 125 121
208 183 151 258 180 130 141 134 133 126 109 123 113 120 131 141 144 147 154 158 166 174 170 169 166 163 165 168 166 170 172 173 173 174 176 171 172 173 166 156 163 162 153 145 135 133 136 124 117
182 197 244 225 195 145 141 149 149 154 98 115 114 122 132 146 151 154 154 160 173 173 173 171 167 166 167 169 173 175 177 177 177 176 174 170 167 168 158 150 152 155 157 145 128 116 123 125 132
270 188 201 272 158 272 149 165 151 170 117 121 124 131 141 149 157 157 158 170 177 174 172 171 168 169 169 170 173 176 179 181 181 180 177 175 174 166 149 145 137 137 139 129 120 116 109 100 93
197 251 209 216 195 175 170 170 174 160 140 137 137 142 149 157 156 163 166 177 177 176 172 169 169 173 172 173 175 178 182 187 190 188 186 176 176 170 161 147 132 135 132 120 124 108 101 78 65
264 286 222 225 202 196 169 186 172 151 152 155 147 152 162 160 161 166 170 175 174 173 171 169 170 172 174 177 180 182 185 191 193 192 189 185 179 169 154 146 140 119 113 112 102 98 116 81 69
273 176 174 233 184 236 156 190 162 156 161 162 159 160 168 168 170 173 174 174 171 172 169 172 172 172 173 177 180 180 180 180 183 181 181 178 170 161 155 141 122 93 95 99 85 81 76 67 58
251 208 167 205 239 174 158 150 150 163 166 168 167 167 170 177 175 174 174 174 172 170 167 171 170 175 175 177 181 186 181 173 177 179 174 168 167 165 150 140 115 85 93 102 88 77 63 52 49
261 269 182 276 250 230 179 182 164 164 170 173 174 174 173 181 181 176 178 175 172 172 173 175 173 176 175 177 177 180 185 188 181 173 173 163 161 160 156 123 108 106 119 107 89 72 67 47 40
252 265 210 263 254 274 205 199 178 169 179 179 177 181 181 180 186 183 182 178 176 177 179 181 180 177 177 177 176 180 184 193 188 176 170 157 158 158 155 142 131 122 125 111 99 74 56 66 64
254 219 264 269 283 272 281 233 177 186 199 189 191 190 189 182 174 179 183 185 182 183 182 183 183 181 178 176 173 168 168 264 174 169 167 160 165 161 158 149 144 142 140 119 104 85 69 60 66
232 248 264 265 269 264 289 257 185 185 190 194 194 196 195 191 188 180 180 184 188 189 186 185 183 183 182 177 178 181 179 176 176 172 170 167 163 162 159 155 152 144 127 117 108 84 66 74 81
239 257 260 265 265 264 252 213 269 180 192 198 194 196 198 195 190 188 182 185 188 187 186 186 185 185 182 180 182 182 182 181 171 166 168 169 163 159 159 157 159 142 125 126 110 87 81 77 85
245 261 262 265 265 247 210 207 199 183 192 201 198 199 198 196 197 195 193 188 187 186 186 187 188 190 187 185 185 185 184 181 179 172 174 173 175 171 169 168 157 143 135 126 117 102 86 79 81
223 223 257 259 256 221 214 243 203 217 198 208 201 203 199 196 197 195 194 190 189 187 187 187 189 191 190 189 189 188 188 185 183 180 176 170 166 176 178 167 159 142 140 139 137 121 95 85 84
218 203 226 253 261 261 261 226 209 212 227 218 216 204 199 196 195 196 195 193 192 192 191 190 192 195 195 197 196 193 191 189 187 186 183 180 176 180 169 168 162 154 149 151 148 139 120 103 99
247 206 212 260 268 272 265 241 248 250 238 239 232 239 195 194 195 197 195 195 195 193 193 193 191 193 192 193 197 194 193 194 193 193 186 184 183 184 171 166 164 162 161 158 148 145 135 119 113
245 253 241 250 212 253 267 250 252 253 228 234 262 203 205 206 200 195 196 196 197 197 195 193 193 192 189 190 191 192 195 201 210 203 191 186 184 183 174 170 168 168 168 165 156 153 145 136 119
242 241 252 248 239 212 269 239 242 253 256 250 257 245 208 199 197 196 196 198 198 195 196 199 197 196 193 190 190 191 192 196 206 201 196 188 190 180 177 174 172 171 171 169 167 170 162 156 139
244 247 245 252 247 254 219 225 254 202 224 255 267 274 211 224 238 206 199 195 195 202 203 200 200 199 195 193 192 193 193 192 194 195 196 194 191 187 183 183 184 180 179 179 180 182 179 178 176